Temp
62 60 58 60 51 45 41 48 51 53 52 56 58 58 56 53 56 48 59 64 63 62 64 64 68 68 68 68 68 68 69 69 70 71 72 73 73 73 74 74 75 75 75 76 76 75 76 75 75
60 66 60 51 44 38 42 48 51 53 56 57 58 56 54 51 57 57 58 65 64 63 62 62 67 67 67 67 68 68 68 69 69 70 70 71 72 72 73 73 73 74 75 76 75 75 75 75 74
63 63 55 48 39 40 42 49 51 55 57 56 53 55 54 54 55 58 61 65 63 60 61 62 66 67 67 67 67 67 67 68 68 68 69 69 70 71 71 72 72 73 74 75 75 75 74 74 74
61 58 54 46 42 48 50 52 51 54 55 58 55 50 54 59 60 61 63 64 60 59 60 64 66 66 66 66 66 67 67 67 67 68 68 68 69 69 70 70 71 71 72 73 74 75 73 73 73
58 52 45 41 45 51 49 54 53 53 51 53 56 52 52 59 60 62 62 63 58 56 58 60 65 65 65 65 65 66 66 66 66 67 67 67 68 68 68 69 70 71 71 71 72 73 73 72 72
53 51 42 40 44 51 50 53 56 53 53 53 51 51 53 59 59 60 61 60 59 57 58 59 63 64 64 65 64 65 65 65 66 66 66 66 66 67 67 68 69 70 71 71 71 71 71 72 71
51 46 42 40 45 47 53 54 50 51 52 53 56 51 51 55 60 60 60 59 58 58 57 57 57 60 63 64 63 63 64 65 65 65 65 64 64 65 66 66 67 68 70 70 70 70 70 70 69
53 49 41 42 46 47 51 52 54 53 54 56 59 51 49 56 60 59 57 57 57 57 56 56 55 56 55 55 62 62 63 64 63 63 62 61 61 61 62 63 64 67 68 68 69 69 70 70 68
54 45 41 46 46 47 52 51 54 53 50 53 58 54 59 59 58 56 54 54 54 57 56 55 54 54 55 55 57 58 60 60 60 58 58 56 53 55 57 60 63 65 65 67 68 68 68 66 65
49 42 47 50 48 48 51 51 52 49 49 51 52 53 55 56 54 53 52 51 52 53 54 54 53 53 54 60 53 51 55 51 51 51 52 52 52 53 58 56 59 62 60 63 67 68 64 62 61
49 46 50 52 52 51 51 49 52 48 48 52 52 54 54 53 53 52 51 51 53 54 53 54 53 52 52 52 49 48 48 47 48 49 50 51 52 50 51 52 55 56 58 61 61 62 62 61 61
47 52 52 54 53 51 49 51 50 51 53 55 55 55 53 53 52 52 51 52 53 54 54 53 52 52 50 49 48 47 48 47 47 48 50 49 47 48 50 51 54 57 59 60 61 61 60 60 60
50 51 53 53 52 51 51 49 48 49 53 55 56 56 53 52 53 53 54 53 53 53 53 52 51 51 51 49 47 47 46 46 47 48 49 49 47 48 49 51 57 55 59 59 59 60 59 59 59
52 52 51 52 52 51 49 46 46 53 51 51 54 54 52 53 53 52 52 53 53 55 53 51 51 50 51 48 47 46 46 46 46 46 48 50 49 47 48 52 56 56 57 58 59 60 59 59 58
52 48 48 47 50 49 47 47 45 52 53 53 52 52 53 53 54 54 54 54 54 53 52 51 49 50 49 47 46 46 46 47 45 47 48 49 50 48 49 54 55 57 58 59 59 59 59 58 59
46 43 41 46 49 48 46 45 52 52 49 52 51 48 51 53 53 53 54 53 52 50 50 51 53 48 48 47 46 46 45 45 45 46 47 49 50 50 49 54 54 56 57 58 58 58 57 58 58
41 38 40 45 49 46 44 45 51 50 49 49 49 49 49 50 51 52 52 51 50 49 48 48 48 47 47 47 45 44 45 45 46 46 48 51 51 51 54 54 54 56 56 57 58 57 58 57 57
39 37 42 41 44 43 40 43 51 52 51 49 48 47 47 49 51 51 49 49 48 47 47 47 47 47 46 44 43 43 43 44 45 47 52 53 52 54 54 54 54 55 55 55 57 57 57 57 57
42 39 41 42 44 41 41 42 49 51 47 45 46 45 47 48 46 47 48 46 45 45 46 46 46 45 43 41 40 40 40 42 44 50 53 52 53 53 53 53 53 55 55 56 57 55 56 55 55
44 40 40 43 44 42 41 43 50 46 44 45 46 45 45 44 43 45 44 44 45 44 44 45 46 44 43 41 41 41 40 43 49 50 51 53 52 51 53 52 53 54 55 56 56 56 54 54 56
41 39 38 40 42 41 40 40 43 45 45 46 45 44 43 44 44 43 44 43 42 42 42 44 44 43 43 43 42 42 42 43 48 48 49 50 52 51 51 52 53 53 54 55 56 55 55 52 53
38 41 41 39 37 35 39 33 41 42 44 44 44 44 43 44 44 44 44 42 42 41 41 43 44 43 43 42 41 40 40 42 47 47 46 48 50 48 51 51 52 53 52 54 56 56 55 55 51
40 42 39 37 34 32 33 31 40 39 43 45 45 45 45 46 46 45 45 45 42 41 40 40 42 42 42 42 41 40 40 42 45 47 46 46 47 49 50 51 51 51 52 54 55 55 55 55 54
42 40 37 34 32 24 32 32 38 40 45 43 44 46 47 46 46 45 44 43 41 39 39 39 40 41 42 41 41 42 40 41 41 41 42 46 47 47 49 49 50 51 52 52 54 56 56 55 55
38 33 21 23 21 27 32 31 40 45 49 48 47 46 46 46 44 42 41 40 39 38 38 40 39 39 40 41 41 42 41 41 40 39 39 43 41 43 46 48 48 49 51 52 54 56 55 55 55
34 34 26 23 24 28 31 31 43 46 48 48 48 47 46 46 45 43 42 41 40 40 39 39 39 39 40 40 40 41 41 40 40 39 39 40 41 44 46 47 48 48 51 52 53 55 55 55 55
34 30 35 25 17 24 32 39 46 44 45 43 46 45 46 46 45 44 43 41 40 38 38 38 38 39 39 39 39 40 40 40 39 42 43 40 41 46 46 45 45 47 49 51 52 54 55 55 55
34 37 29 25 21 21 28 33 39 40 45 45 45 45 46 46 45 44 42 40 39 39 38 37 38 38 39 39 39 42 40 40 43 43 42 44 44 44 45 45 47 47 49 51 53 55 56 55 55
30 27 31 32 30 25 23 35 45 46 47 47 46 47 47 46 46 43 41 40 39 38 37 36 37 38 39 40 41 43 40 40 43 44 44 44 45 45 45 46 47 48 49 51 53 55 56 55 55
31 32 34 27 25 24 27 34 47 48 46 47 47 48 47 47 46 43 40 38 37 36 36 36 37 38 38 40 43 42 39 41 43 41 44 44 44 45 45 46 47 48 50 53 53 54 55 55 54
MSLP
1013.30 1013.14 1013.34 1013.67 1015.21 1015.77 1015.08 1013.74 1012.74 1012.52 1012.44 1012.13 1011.97 1011.85 1012.21 1012.74 1013.47 1015.14 1014.84 1014.85 1015.12 1015.68 1015.96 1016.04 1016.08 1016.19 1016.21 1016.14 1015.97 1015.81 1015.62 1015.48 1015.24 1014.99 1014.70 1014.36 1014.17 1013.91 1013.73 1013.57 1013.47 1013.49 1013.41 1013.42 1013.57 1013.76 1013.77 1013.91 1014.14
1013.39 1013.25 1013.74 1014.75 1015.67 1016.08 1014.91 1013.57 1013.16 1012.74 1012.46 1012.30 1012.24 1012.40 1012.67 1013.26 1013.68 1014.48 1014.91 1014.84 1014.93 1015.50 1015.91 1016.11 1016.18 1016.27 1016.25 1016.21 1016.08 1015.95 1015.81 1015.64 1015.45 1015.22 1015.07 1014.77 1014.31 1014.04 1013.80 1013.66 1013.51 1013.39 1013.31 1013.21 1013.22 1013.56 1013.66 1013.69 1013.82
1013.39 1013.70 1014.71 1015.36 1015.77 1015.52 1014.54 1013.50 1013.16 1012.89 1012.67 1012.55 1012.65 1012.64 1012.96 1013.41 1013.79 1014.06 1014.12 1014.55 1015.05 1015.56 1015.78 1016.00 1016.17 1016.24 1016.23 1016.21 1016.13 1016.05 1015.91 1015.80 1015.59 1015.40 1015.17 1014.92 1014.66 1014.32 1014.02 1013.73 1013.53 1013.41 1013.22 1013.16 1013.13 1013.16 1013.40 1013.58 1013.71
1013.62 1014.28 1015.34 1015.34 1015.20 1014.22 1013.45 1013.05 1013.17 1013.14 1013.03 1012.81 1012.83 1013.10 1013.22 1013.22 1013.46 1013.77 1014.07 1014.38 1015.10 1015.57 1015.69 1015.79 1016.00 1016.18 1016.26 1016.26 1016.20 1016.10 1015.98 1015.82 1015.64 1015.43 1015.20 1014.97 1014.74 1014.53 1014.13 1013.76 1013.60 1013.47 1013.28 1013.03 1013.06 1012.97 1013.14 1013.46 1013.64
1014.02 1014.89 1015.62 1015.46 1014.54 1013.36 1012.84 1012.74 1013.00 1013.30 1013.13 1013.13 1013.09 1013.29 1013.56 1013.60 1013.61 1013.85 1014.15 1014.56 1015.03 1015.69 1015.74 1015.84 1015.96 1016.10 1016.19 1016.21 1016.21 1016.12 1015.98 1015.84 1015.69 1015.50 1015.30 1015.07 1014.87 1014.65 1014.39 1014.09 1013.70 1013.49 1013.30 1013.20 1013.11 1012.94 1012.78 1013.08 1013.41
1014.59 1015.21 1015.77 1015.43 1014.14 1013.12 1012.72 1012.53 1012.72 1012.90 1012.90 1013.13 1013.61 1013.74 1013.83 1013.75 1014.06 1014.26 1014.35 1014.69 1014.88 1015.38 1015.70 1015.78 1015.88 1016.01 1016.11 1016.18 1016.21 1016.11 1015.95 1015.82 1015.66 1015.51 1015.35 1015.09 1014.89 1014.60 1014.28 1013.98 1013.74 1013.47 1013.17 1013.13 1013.11 1012.93 1012.68 1012.65 1013.06
1014.51 1015.37 1015.24 1014.61 1013.74 1012.95 1012.56 1012.34 1012.51 1012.52 1012.87 1013.01 1013.03 1013.69 1014.08 1014.28 1013.93 1014.10 1014.40 1014.81 1015.10 1015.17 1015.44 1015.70 1015.84 1015.90 1015.97 1016.03 1016.11 1016.09 1015.95 1015.83 1015.65 1015.56 1015.44 1015.28 1014.96 1014.57 1014.29 1014.08 1013.79 1013.48 1013.03 1012.96 1013.03 1012.84 1012.67 1012.75 1012.98
1014.39 1015.13 1014.95 1014.12 1013.56 1012.87 1012.50 1012.51 1012.46 1012.46 1012.41 1012.41 1012.80 1013.27 1013.80 1013.75 1014.14 1014.38 1014.63 1014.83 1015.13 1015.28 1015.28 1015.56 1015.73 1015.79 1015.88 1015.95 1015.97 1016.01 1015.84 1015.76 1015.63 1015.59 1015.50 1015.30 1015.07 1014.82 1014.47 1014.13 1013.81 1013.48 1013.15 1012.88 1012.83 1012.68 1012.63 1012.69 1012.89
1013.89 1014.95 1014.97 1013.78 1013.39 1012.97 1012.69 1012.68 1012.47 1012.36 1012.53 1012.64 1012.56 1012.80 1012.80 1013.07 1014.00 1014.80 1015.20 1015.32 1015.26 1015.32 1015.40 1015.45 1015.64 1015.68 1015.76 1015.82 1015.92 1016.00 1015.84 1015.79 1015.76 1015.70 1015.54 1015.38 1015.20 1014.91 1014.54 1014.18 1013.83 1013.44 1013.26 1012.86 1012.51 1012.41 1012.54 1012.75 1013.09
1014.17 1014.79 1014.03 1013.23 1013.07 1013.13 1013.07 1013.06 1012.78 1012.92 1012.87 1012.86 1012.65 1012.85 1013.13 1013.55 1014.11 1014.45 1014.88 1015.20 1015.34 1015.27 1015.29 1015.48 1015.51 1015.75 1015.73 1015.66 1015.89 1015.99 1016.01 1016.00 1015.91 1015.79 1015.58 1015.36 1015.10 1014.79 1014.39 1014.12 1013.75 1013.35 1013.10 1012.78 1012.46 1012.12 1012.57 1012.99 1013.38
1013.97 1014.05 1013.45 1013.21 1013.09 1013.30 1013.44 1013.42 1013.15 1013.04 1012.94 1012.44 1012.40 1012.75 1013.38 1013.91 1014.29 1014.60 1014.82 1014.93 1014.99 1014.89 1014.97 1015.24 1015.50 1015.65 1015.83 1015.78 1015.97 1016.11 1016.09 1015.96 1015.86 1015.69 1015.48 1015.23 1014.99 1014.72 1014.41 1014.11 1013.75 1013.50 1013.05 1012.56 1012.50 1012.67 1012.56 1013.07 1013.30
1013.86 1013.43 1013.57 1013.28 1013.34 1013.39 1013.45 1013.49 1013.37 1013.04 1011.98 1011.63 1011.92 1012.23 1013.03 1013.72 1014.19 1014.34 1014.59 1014.76 1014.73 1014.76 1014.76 1015.03 1015.36 1015.59 1015.70 1015.88 1015.95 1016.01 1016.02 1015.85 1015.78 1015.57 1015.28 1015.14 1015.01 1014.76 1014.41 1014.09 1013.52 1013.38 1012.97 1012.65 1012.61 1012.68 1012.98 1013.15 1013.43
1013.56 1013.42 1013.42 1013.21 1013.47 1013.50 1013.45 1013.52 1013.69 1012.39 1011.83 1011.75 1011.98 1012.39 1012.81 1013.24 1013.57 1013.94 1014.03 1014.29 1014.61 1014.78 1014.76 1014.85 1015.24 1015.53 1015.58 1015.78 1015.89 1015.96 1015.93 1015.79 1015.65 1015.46 1015.16 1014.94 1014.84 1014.70 1014.40 1014.12 1013.48 1013.39 1013.00 1012.81 1012.78 1012.64 1012.91 1013.33 1013.83
1013.70 1013.58 1013.32 1013.28 1013.35 1013.49 1013.61 1013.43 1013.49 1011.40 1011.28 1011.68 1011.98 1012.21 1012.65 1012.86 1013.03 1013.61 1013.97 1014.08 1014.39 1014.59 1014.81 1014.89 1015.21 1015.40 1015.52 1015.74 1015.77 1015.91 1015.82 1015.66 1015.51 1015.37 1015.12 1014.83 1014.64 1014.52 1014.33 1013.99 1013.51 1013.26 1012.96 1012.53 1012.60 1012.66 1012.96 1013.43 1013.91
1014.01 1013.93 1013.41 1013.16 1013.25 1013.50 1013.62 1013.18 1012.73 1011.31 1011.53 1011.63 1011.68 1011.87 1012.29 1012.57 1012.77 1013.11 1013.36 1013.78 1014.05 1014.41 1014.63 1014.93 1015.17 1015.39 1015.63 1015.82 1015.80 1015.80 1015.71 1015.55 1015.53 1015.29 1015.03 1014.72 1014.44 1014.31 1014.18 1013.79 1013.53 1013.17 1012.83 1012.50 1012.49 1012.64 1012.99 1013.59 1014.14
1014.25 1014.32 1013.79 1013.16 1013.20 1013.43 1013.72 1012.70 1011.05 1010.94 1011.59 1011.93 1011.77 1011.92 1012.13 1012.31 1012.52 1012.81 1013.06 1013.43 1013.92 1014.41 1014.85 1015.07 1015.33 1015.63 1015.80 1015.90 1015.83 1015.76 1015.72 1015.57 1015.45 1015.26 1015.01 1014.69 1014.31 1014.15 1013.96 1013.69 1013.56 1013.23 1012.95 1012.57 1012.41 1012.39 1012.88 1013.44 1013.98
1014.76 1014.51 1014.04 1013.34 1013.33 1013.45 1013.75 1012.60 1011.01 1010.95 1011.58 1011.94 1011.94 1011.74 1012.07 1012.29 1012.56 1012.69 1013.06 1013.57 1014.11 1014.49 1015.01 1015.27 1015.42 1015.62 1015.78 1015.88 1015.84 1015.82 1015.64 1015.53 1015.31 1015.21 1014.87 1014.42 1014.05 1013.82 1013.57 1013.61 1013.44 1013.13 1012.96 1012.66 1012.30 1012.07 1012.19 1013.08 1013.92
1014.51 1014.39 1013.98 1013.68 1013.55 1013.58 1013.60 1012.57 1010.93 1010.98 1011.40 1011.38 1011.70 1011.62 1012.09 1012.33 1012.40 1012.84 1013.52 1014.05 1014.47 1014.71 1015.02 1015.18 1015.36 1015.55 1015.72 1015.88 1015.96 1015.89 1015.80 1015.59 1015.31 1015.12 1014.67 1014.29 1014.04 1013.78 1013.60 1013.48 1013.35 1013.01 1012.88 1012.49 1012.08 1012.32 1012.04 1012.78 1013.66
1014.17 1014.04 1014.10 1013.66 1013.58 1013.80 1013.20 1012.58 1010.95 1010.40 1010.55 1010.85 1011.13 1011.40 1011.57 1012.00 1012.58 1013.15 1013.68 1014.23 1014.71 1015.11 1015.23 1015.19 1015.38 1015.61 1015.82 1016.04 1016.20 1016.23 1016.13 1015.77 1015.40 1015.01 1014.65 1014.28 1013.98 1013.81 1013.65 1013.54 1013.37 1013.11 1012.78 1012.42 1012.07 1012.17 1012.75 1012.84 1013.84
1014.37 1014.26 1014.19 1013.87 1013.88 1014.05 1013.29 1012.00 1010.45 1010.18 1010.13 1010.36 1010.59 1010.91 1011.23 1012.11 1012.96 1013.67 1014.24 1014.48 1014.79 1015.13 1015.29 1015.34 1015.45 1015.77 1015.93 1016.02 1016.01 1016.13 1016.03 1015.65 1015.29 1015.01 1014.64 1014.33 1014.13 1013.95 1013.74 1013.55 1013.39 1013.26 1012.80 1012.33 1012.19 1012.26 1012.55 1013.04 1013.19
1014.39 1014.49 1014.45 1014.59 1014.36 1014.18 1013.94 1011.96 1010.60 1010.09 1010.13 1010.20 1010.46 1010.88 1011.49 1012.10 1012.97 1013.89 1014.46 1014.54 1014.92 1015.19 1015.24 1015.39 1015.63 1015.79 1015.90 1015.91 1015.94 1015.92 1015.77 1015.53 1015.13 1015.01 1014.78 1014.57 1014.20 1014.01 1013.84 1013.57 1013.55 1013.50 1012.89 1011.72 1012.27 1012.57 1012.75 1012.88 1013.93
1014.76 1014.56 1014.85 1015.16 1015.29 1015.32 1014.63 1013.45 1011.21 1010.32 1010.09 1010.26 1010.57 1011.19 1011.95 1012.72 1013.04 1013.67 1014.24 1014.63 1014.89 1015.15 1015.39 1015.49 1015.71 1015.81 1015.78 1015.87 1015.82 1015.90 1015.98 1015.88 1015.50 1015.21 1014.89 1014.72 1014.34 1014.13 1013.92 1013.65 1013.59 1013.55 1013.32 1012.76 1012.41 1012.94 1013.40 1013.38 1014.42
1015.14 1015.27 1015.73 1016.10 1016.14 1016.09 1015.35 1015.06 1010.97 1010.59 1010.06 1009.95 1010.59 1011.13 1011.85 1012.62 1012.84 1013.36 1013.83 1014.24 1014.80 1015.16 1015.45 1015.61 1015.69 1015.87 1015.79 1015.72 1015.88 1016.29 1016.03 1015.79 1015.62 1015.33 1015.06 1014.92 1014.65 1014.23 1014.12 1013.93 1013.81 1013.47 1013.42 1013.10 1012.98 1013.16 1013.26 1013.97 1014.53
1015.85 1016.21 1016.73 1017.31 1017.28 1016.96 1015.43 1014.84 1011.47 1010.45 1009.49 1009.48 1010.21 1010.95 1011.59 1012.19 1012.60 1013.27 1013.71 1014.22 1014.91 1015.35 1015.56 1015.65 1015.82 1015.96 1015.86 1015.96 1016.18 1016.08 1016.19 1016.40 1016.27 1015.85 1015.55 1015.29 1014.97 1014.58 1014.38 1014.26 1014.23 1013.82 1013.69 1013.71 1013.58 1013.48 1013.85 1014.25 1014.75
1016.55 1017.37 1018.07 1018.47 1018.35 1016.99 1015.65 1014.93 1010.93 1009.39 1008.78 1008.93 1009.72 1010.59 1011.24 1011.84 1012.57 1013.35 1013.84 1014.52 1015.10 1015.49 1015.57 1015.70 1015.87 1016.11 1016.17 1016.30 1016.25 1016.34 1016.33 1016.33 1016.29 1016.32 1016.07 1015.80 1015.52 1014.99 1014.54 1014.48 1014.60 1014.25 1013.91 1013.68 1013.70 1013.67 1013.89 1014.33 1014.64
1016.98 1017.32 1017.89 1018.00 1018.55 1017.16 1015.95 1013.66 1009.80 1008.75 1008.42 1008.44 1009.03 1009.99 1011.03 1011.63 1012.42 1013.10 1013.64 1014.23 1014.80 1015.35 1015.50 1015.67 1015.96 1016.11 1016.32 1016.37 1016.41 1016.47 1016.25 1016.21 1016.00 1015.96 1016.01 1015.72 1015.49 1015.17 1014.65 1014.67 1014.58 1014.53 1014.22 1014.09 1014.08 1013.87 1013.99 1014.32 1014.75
1017.34 1017.34 1017.02 1017.76 1018.85 1017.21 1014.51 1011.99 1009.17 1008.51 1008.55 1008.90 1009.33 1010.46 1010.93 1011.30 1012.08 1012.77 1013.31 1013.91 1014.64 1015.17 1015.40 1015.71 1015.99 1016.28 1016.37 1016.47 1016.70 1016.53 1016.36 1016.17 1016.02 1015.69 1015.53 1015.59 1015.40 1015.05 1014.71 1014.86 1014.71 1014.55 1014.31 1014.18 1014.06 1014.20 1014.10 1014.48 1014.88
1017.30 1017.44 1017.44 1017.60 1017.87 1016.69 1014.12 1012.17 1009.61 1008.77 1008.52 1008.99 1009.55 1010.19 1010.58 1011.05 1011.78 1012.51 1013.14 1013.67 1014.52 1014.95 1015.35 1015.88 1016.10 1016.24 1016.30 1016.49 1016.52 1016.20 1016.26 1015.87 1015.77 1015.62 1015.71 1015.71 1015.53 1015.19 1014.92 1014.73 1014.58 1014.43 1014.32 1014.21 1014.28 1013.74 1014.14 1014.58 1015.14
1017.72 1017.31 1017.37 1017.28 1016.45 1015.74 1014.03 1010.64 1007.76 1007.54 1007.57 1008.13 1008.81 1009.55 1009.98 1010.69 1011.41 1012.13 1012.89 1013.58 1014.49 1015.05 1015.39 1015.89 1016.09 1016.31 1016.26 1016.32 1016.39 1016.14 1016.24 1015.90 1015.66 1015.41 1015.64 1015.57 1015.33 1015.18 1015.06 1014.67 1014.51 1014.35 1014.22 1014.23 1014.19 1013.82 1014.18 1014.80 1015.32
1017.37 1016.98 1016.70 1016.73 1016.41 1015.76 1013.98 1010.13 1007.45 1007.26 1007.13 1007.71 1008.21 1009.03 1009.61 1010.30 1010.99 1011.89 1012.79 1013.59 1014.52 1015.18 1015.51 1016.01 1015.98 1016.22 1016.26 1016.15 1016.17 1016.29 1016.29 1015.81 1015.61 1015.51 1015.37 1015.25 1014.92 1014.94 1014.84 1014.71 1014.47 1014.56 1014.50 1014.45 1014.24 1014.18 1014.43 1014.96 1015.47
Wind_Speed
7 6 1 5 5 6 4 5 2 2 1 2 1 4 5 2 3 5 3 8 11 8 5 6 6 5 5 6 7 8 9 9 9 9 12 13 13 9 8 7 9 9 11 12 12 11 12 10 8
4 4 5 3 6 2 6 4 2 3 4 4 3 2 3 1 3 6 6 8 10 10 6 5 6 4 4 5 6 7 8 9 9 9 10 9 12 13 11 8 8 9 11 12 12 13 13 13 12
2 2 4 5 4 5 5 3 6 3 3 1 2 2 3 3 1 9 4 10 10 8 7 6 6 5 5 5 6 7 7 8 9 9 10 10 10 13 13 11 9 9 10 11 12 10 12 14 14
2 5 5 5 5 6 5 5 4 4 1 1 3 1 2 1 8 8 9 10 9 7 7 8 8 5 5 5 6 7 7 8 9 10 11 11 11 12 14 13 11 8 9 9 11 11 11 13 14
4 3 3 1 5 4 1 5 7 5 3 3 4 3 2 4 4 9 8 9 10 7 6 6 8 6 5 5 5 6 7 8 9 9 9 10 11 11 11 12 12 9 6 8 8 11 12 12 14
4 3 3 3 4 2 1 1 6 5 4 1 1 4 4 4 7 7 7 8 8 9 7 6 7 6 4 3 3 5 6 7 8 8 9 10 11 12 11 10 10 11 8 6 9 13 10 8 12
5 4 4 4 5 3 5 1 3 3 5 5 2 5 1 4 8 8 7 7 7 7 7 6 6 5 4 3 2 2 3 5 6 8 9 10 11 12 12 12 10 12 12 5 9 13 7 11 7
5 4 2 3 3 4 2 1 4 4 6 1 7 6 5 6 8 6 6 7 6 6 6 7 6 5 4 1 2 3 3 4 7 8 9 9 11 12 12 12 11 14 14 7 8 12 13 8 20
4 4 2 4 1 2 2 3 2 0 2 3 6 4 4 9 9 6 4 4 4 4 5 5 5 5 4 3 3 3 3 6 6 7 8 6 4 5 7 9 14 15 13 12 7 11 14 12 17
5 4 7 2 3 4 3 3 3 2 3 5 5 2 4 8 7 8 6 7 5 5 5 6 6 5 4 3 2 1 2 2 3 4 4 4 5 5 6 6 12 11 9 11 10 4 15 9 7
4 6 4 3 3 2 3 4 3 4 7 11 9 7 8 6 7 7 6 7 7 5 3 7 6 6 5 3 2 0 1 1 2 4 4 4 4 4 4 3 3 4 7 3 2 8 7 9 8
2 5 4 3 3 2 3 4 6 8 9 3 9 5 10 9 9 8 8 7 5 6 5 6 6 6 4 2 1 1 1 1 2 3 5 3 3 4 4 4 4 3 5 3 4 4 6 8 8
4 3 3 2 5 5 2 7 7 12 11 8 6 5 13 9 9 6 7 6 5 6 6 7 7 6 4 3 1 1 2 2 3 3 4 3 3 3 4 4 3 3 5 2 3 4 6 7 6
2 3 6 6 5 4 3 4 1 8 4 8 8 8 8 10 11 5 5 6 7 6 6 6 6 5 4 2 2 1 2 3 3 3 4 5 3 3 4 4 4 4 4 3 5 6 7 7 6
3 6 6 4 4 4 1 5 10 8 5 5 8 9 9 10 7 9 8 8 7 4 6 7 6 5 4 2 1 1 2 2 3 3 5 5 3 3 4 3 4 3 5 4 4 6 5 6 6
3 1 4 1 5 0 1 10 6 4 7 9 8 6 8 9 9 8 7 6 8 7 7 6 5 5 3 1 1 2 3 3 3 3 3 3 5 4 5 3 4 3 4 4 4 6 8 8 8
4 4 3 5 6 2 4 10 6 2 6 9 9 9 7 7 6 6 6 8 8 7 7 7 5 4 2 1 1 2 3 3 3 2 2 3 4 4 4 3 4 5 3 3 4 3 10 9 8
5 3 5 5 2 2 4 17 18 9 9 12 10 8 7 7 9 6 8 7 7 7 6 7 4 3 3 3 2 2 2 3 2 3 3 3 4 4 3 3 4 5 4 4 3 6 8 9 10
1 1 5 5 1 2 7 11 20 9 7 8 9 8 9 8 3 7 7 8 7 6 7 6 5 3 2 2 2 1 2 2 2 2 3 4 4 4 4 3 4 4 4 6 4 1 10 6 12
4 3 6 4 2 1 7 17 15 5 2 4 6 5 4 7 7 7 7 6 6 7 6 5 4 3 2 1 1 1 2 3 2 2 3 3 4 4 4 4 4 5 4 4 6 4 4 10 10
4 5 4 4 5 3 7 9 4 1 1 1 1 3 4 10 10 7 7 7 6 7 7 6 5 4 3 2 1 1 1 2 0 2 2 3 3 3 4 5 4 4 4 5 4 6 9 9 6
3 2 2 1 3 3 4 8 7 3 5 3 3 3 5 7 5 6 8 6 7 6 6 6 5 5 3 3 2 2 1 0 1 2 1 3 3 4 4 4 5 3 3 5 2 5 7 10 11
4 2 3 1 2 3 1 2 9 3 6 7 8 7 7 9 8 9 9 7 6 7 7 5 5 4 4 4 3 2 0 1 2 2 3 3 3 3 4 4 6 6 4 5 5 4 8 7 7
5 4 6 4 2 3 2 5 8 4 6 1 3 8 8 8 7 6 5 7 6 5 5 5 5 3 4 4 3 1 2 4 4 4 3 3 3 3 4 4 4 5 4 3 3 3 7 8 6
3 5 3 5 4 7 1 2 12 5 7 5 10 10 9 8 7 8 9 7 6 7 6 5 6 4 3 5 2 2 2 2 2 4 3 4 3 3 4 4 3 3 4 4 4 1 9 7 11
6 6 7 8 4 3 1 7 8 5 4 4 8 8 7 8 7 8 9 8 8 7 7 6 5 4 5 4 1 2 2 1 1 1 2 2 1 3 4 3 3 4 4 3 2 2 6 5 9
5 5 2 7 1 4 5 8 9 4 4 2 7 7 9 8 9 9 8 8 7 7 7 7 6 4 5 3 3 2 2 1 2 3 3 1 3 3 4 3 4 4 4 3 3 1 6 7 8
3 2 3 4 3 4 5 6 8 6 10 7 7 10 9 8 8 7 7 8 6 6 5 5 5 6 5 4 3 3 1 2 4 3 4 3 3 4 4 4 4 4 3 2 3 1 7 8 5
2 2 2 1 4 7 2 8 8 10 10 13 11 11 10 9 9 8 7 7 7 6 6 6 6 6 6 4 2 1 1 4 4 3 3 2 3 3 4 4 4 3 3 3 3 2 9 11 8
1 4 6 5 6 2 2 9 2 7 6 7 9 10 7 8 8 8 8 8 8 7 6 6 6 6 5 4 3 1 2 4 3 4 3 2 3 2 4 4 4 3 4 4 2 3 7 9 10
Wind_Direction
328 323 80 39 59 62 268 263 355 89 298 248 83 131 154 88 162 207 230 136 127 131 127 99 91 68 49 36 31 23 14 7 4 352 344 343 348 352 323 307 283 264 257 246 237 228 212 212 189
343 348 44 82 92 80 264 250 177 228 191 158 97 28 62 163 123 141 132 163 139 136 126 117 107 93 69 51 40 28 16 8 3 358 350 332 332 342 348 331 327 299 264 256 245 241 221 209 183
320 51 87 104 118 186 215 212 187 218 183 157 66 54 152 196 12 162 199 140 127 130 133 126 116 96 74 58 49 34 19 8 2 356 353 346 336 323 333 341 336 321 282 258 254 242 228 212 193
51 17 26 95 227 251 216 196 211 152 335 84 141 224 55 253 165 187 151 131 122 139 136 134 126 105 79 60 47 34 22 13 3 354 349 345 340 332 321 335 325 332 330 284 257 249 236 223 208
32 61 61 343 260 262 217 170 164 188 197 207 152 240 236 339 118 137 151 133 134 149 145 137 130 114 90 73 55 35 25 15 3 354 347 340 335 332 324 305 315 310 321 317 311 276 256 225 216
45 94 72 236 249 242 34 185 176 178 185 190 207 159 240 140 133 176 154 142 147 151 162 154 146 142 129 102 60 30 29 16 10 358 350 343 335 329 324 309 306 304 298 304 306 294 284 221 215
116 93 206 216 245 202 203 196 175 200 155 237 200 178 315 197 201 172 162 143 149 150 146 159 165 164 159 175 162 349 12 10 5 357 350 343 340 341 332 331 322 329 309 296 293 290 257 133 115
106 93 245 249 262 237 229 250 181 180 240 158 166 225 228 212 179 150 148 153 154 166 166 173 172 169 163 167 196 281 355 8 5 1 348 345 345 335 325 325 329 319 312 289 285 294 178 137 92
100 68 243 248 218 252 265 213 246 243 162 210 206 175 222 141 136 137 139 160 172 191 200 180 174 170 172 158 180 321 7 9 11 349 341 344 323 318 311 321 322 318 321 290 297 289 166 141 133
97 133 221 222 164 214 280 230 232 204 235 259 263 52 106 137 163 167 179 198 214 220 223 198 180 183 173 145 132 351 10 9 344 332 326 322 311 312 316 322 309 312 311 301 304 206 134 114 128
174 204 221 234 195 181 241 280 282 205 245 220 211 195 180 180 191 190 205 200 211 225 209 186 183 181 174 162 148 97 327 345 328 328 320 320 328 313 310 308 309 319 305 294 319 143 125 141 140
214 238 238 222 210 195 235 302 286 216 228 233 213 192 170 190 205 205 206 213 206 199 186 174 173 169 177 153 141 145 332 336 322 310 324 336 330 318 310 308 295 325 311 300 169 154 147 157 150
203 261 268 239 201 246 285 247 242 263 252 246 251 212 188 197 205 218 210 211 199 173 157 177 166 169 165 152 124 53 342 330 300 312 310 322 312 304 314 303 288 311 300 269 195 158 156 144 137
216 266 261 274 227 249 254 257 56 271 280 237 195 217 204 203 208 196 193 197 185 183 158 152 155 155 149 122 97 42 329 320 330 308 303 311 289 304 296 294 311 306 309 283 187 174 168 153 132
312 312 311 213 205 243 64 279 229 249 289 236 194 210 216 217 194 201 195 184 180 163 140 144 141 135 108 103 67 352 303 337 303 308 325 322 340 310 303 295 314 319 318 288 189 189 157 140 140
323 56 342 290 147 238 68 271 264 247 191 244 251 226 210 230 214 212 198 168 151 137 138 137 126 125 126 121 33 329 328 306 300 320 322 318 317 313 297 1 318 309 302 295 192 188 166 150 146
358 254 238 303 203 135 168 274 261 153 190 252 245 240 226 242 232 217 171 151 148 141 142 136 135 141 160 37 21 14 8 9 339 293 314 319 334 334 351 330 307 306 288 295 220 199 164 147 143
212 229 254 254 210 204 242 264 277 254 237 240 248 244 236 230 231 162 138 130 131 137 138 140 137 155 89 54 32 25 4 343 344 313 312 312 315 349 11 319 310 313 306 295 231 196 158 147 133
89 219 261 279 184 255 247 269 278 295 253 254 250 242 229 221 160 129 130 134 126 133 144 145 143 159 99 46 35 11 331 309 324 320 327 326 341 359 355 333 320 333 303 282 154 105 165 131 123
228 244 263 270 207 270 307 285 281 277 293 212 179 199 206 133 128 135 143 150 163 166 161 142 143 132 123 142 198 188 228 268 244 297 315 5 348 12 341 329 332 328 334 299 148 136 127 135 134
214 198 233 247 314 238 320 291 327 297 288 80 101 79 141 163 155 165 177 176 164 167 164 156 152 144 140 137 88 329 320 327 119 343 321 346 340 359 331 330 335 336 356 318 131 108 121 130 98
251 175 150 54 41 258 18 283 302 300 268 243 235 114 168 176 165 170 185 178 176 175 156 147 148 144 149 135 129 163 157 104 308 281 289 309 14 352 344 341 347 3 1 16 84 110 105 134 142
214 107 109 104 93 20 324 70 269 331 278 244 221 214 199 207 190 188 188 171 163 151 159 159 145 147 157 145 123 88 219 348 310 356 35 1 12 10 359 19 357 342 12 8 6 115 118 125 141
136 79 42 46 73 18 230 137 283 207 217 259 195 210 209 205 193 154 141 139 145 157 157 159 149 176 158 125 111 120 59 354 347 1 0 11 2 357 9 21 14 339 2 5 5 141 141 153 141
82 80 333 351 13 216 90 91 246 263 248 208 196 202 210 203 170 162 162 165 160 174 178 166 155 171 151 118 156 84 47 34 26 348 344 4 352 334 338 3 15 338 339 344 353 318 160 154 153
177 167 167 201 194 228 93 231 251 227 293 233 185 176 188 187 178 183 183 179 177 174 182 169 165 148 131 134 121 69 65 57 135 143 296 291 320 296 297 334 339 327 324 318 313 298 138 127 135
199 194 197 103 33 50 219 280 297 241 258 140 160 172 204 201 192 196 190 179 173 169 188 173 165 141 132 139 90 83 70 2 280 245 237 245 272 271 290 314 312 302 299 299 306 278 143 141 142
189 313 85 341 139 239 280 277 241 240 229 206 199 210 214 207 196 189 184 167 167 167 169 162 166 151 139 126 171 161 134 259 270 287 298 304 289 288 306 302 284 286 274 256 251 329 140 155 122
147 275 240 233 163 173 193 256 213 213 205 201 203 212 205 197 202 182 176 155 153 155 157 165 156 147 137 150 167 193 285 291 286 277 321 326 286 264 270 266 270 267 246 225 228 222 137 150 156
275 229 186 143 248 255 166 272 236 240 224 204 203 208 206 203 200 173 160 153 156 168 162 175 165 149 145 144 161 201 319 308 302 327 317 284 278 270 234 228 233 210 208 203 170 101 134 136 146